| time (UTC) | temp F | wind direction | speed knots | gust knots | rain 1hr in | rain 24hr in | rain mn in | humidity % | barometer mb |
| 20260505054513 | 55 | 190 | 14.8 | 29.5 | 0.00 | 0.00 | 0.00 | 59 | 1005.2 |
| 20260505054012 | 55 | 166 | 15.6 | 29.5 | 0.00 | 0.00 | 0.00 | 60 | 1005.3 |
| 20260505053505 | 55 | 195 | 14.8 | 25.2 | 0.00 | 0.00 | 0.00 | 62 | 1005.1 |
| 20260505052954 | 55 | 171 | 13.9 | 24.3 | 0.00 | 0.00 | 0.00 | 63 | 1005.2 |
| 20260505052724 | 55 | 158 | 12.2 | 23.5 | 0.00 | 0.00 | 0.00 | 63 | 1005.3 |
| 20260505051947 | 55 | 182 | 13.0 | 20.9 | 0.00 | 0.00 | 0.00 | 63 | 1005.2 |
| 20260505051441 | 55 | 157 | 13.0 | 20.9 | 0.00 | 0.00 | 0.00 | 63 | 1005.3 |
| 20260505050936 | 55 | 194 | 12.2 | 20.9 | 0.00 | 0.00 | 0.00 | 63 | 1005.0 |
| 20260505050425 | 55 | 168 | 11.3 | 20.9 | 0.00 | 0.00 | 0.00 | 64 | 1005.1 |
| 20260505041329 | 59 | 196 | 6.1 | 11.3 | 0.00 | 0.00 | 0.00 | 52 | 1005.6 |
| 20260505040824 | 59 | 190 | 4.3 | 11.3 | 0.00 | 0.00 | 0.00 | 51 | 1005.4 |
| 20260505035811 | 60 | 195 | 10.4 | 16.5 | 0.00 | 0.00 | 0.00 | 50 | 1005.8 |
| 20260505035301 | 60 | 145 | 12.2 | 18.2 | 0.00 | 0.00 | 0.00 | 48 | 1005.6 |
| 20260505034759 | 61 | 167 | 9.6 | 18.2 | 0.00 | 0.00 | 0.00 | 46 | 1005.6 |
| 20260505034254 | 61 | 144 | 7.8 | 12.2 | 0.00 | 0.00 | 0.00 | 43 | 1005.6 |
| 20260505033747 | 61 | 155 | 7.0 | 11.3 | 0.00 | 0.00 | 0.00 | 43 | 1005.6 |
| 20260505033513 | 61 | 181 | 7.0 | 11.3 | 0.00 | 0.00 | 0.00 | 44 | 1005.4 |
| 20260505032959 | 62 | 153 | 7.0 | 11.3 | 0.00 | 0.00 | 0.00 | 44 | 1005.4 |
| 20260505032226 | 62 | 206 | 7.8 | 11.3 | 0.00 | 0.00 | 0.00 | 43 | 1005.3 |
| 20260505031723 | 62 | 178 | 7.8 | 12.2 | 0.00 | 0.00 | 0.00 | 43 | 1005.3 |
| 20260505031211 | 62 | 167 | 7.8 | 12.2 | 0.00 | 0.00 | 0.00 | 43 | 1005.2 |
| 20260505030712 | 62 | 157 | 7.8 | 13.9 | 0.00 | 0.00 | 0.00 | 43 | 1005.2 |
| 20260505030201 | 62 | 163 | 7.0 | 14.8 | 0.00 | 0.00 | 0.00 | 44 | 1005.2 |
| 20260505025659 | 62 | 196 | 7.0 | 14.8 | 0.00 | 0.00 | 0.00 | 44 | 1005.2 |
| 20260505025146 | 62 | 194 | 5.2 | 9.6 | 0.00 | 0.00 | 0.00 | 41 | 1005.2 |
| 20260505024645 | 62 | 195 | 5.2 | 7.8 | 0.00 | 0.00 | 0.00 | 43 | 1004.9 |
| 20260505024141 | 62 | 180 | 5.2 | 8.7 | 0.00 | 0.00 | 0.00 | 43 | 1004.9 |
| 20260505023635 | 62 | 121 | 6.1 | 10.4 | 0.00 | 0.00 | 0.00 | 44 | 1004.8 |
| 20260505023129 | 62 | 132 | 6.1 | 10.4 | 0.00 | 0.00 | 0.00 | 44 | 1004.8 |
| 20260505022619 | 62 | 165 | 6.1 | 12.2 | 0.00 | 0.00 | 0.00 | 44 | 1004.6 |
| 20260505022109 | 62 | 109 | 7.0 | 13.9 | 0.00 | 0.00 | 0.00 | 44 | 1004.6 |
| 20260505021610 | 62 | 132 | 7.8 | 13.9 | 0.00 | 0.00 | 0.00 | 46 | 1004.6 |
| 20260505021104 | 62 | 122 | 8.7 | 13.9 | 0.00 | 0.00 | 0.00 | 45 | 1004.8 |
| 20260505020559 | 62 | 115 | 8.7 | 12.2 | 0.00 | 0.00 | 0.00 | 45 | 1004.6 |
| 20260505020049 | 63 | 133 | 8.7 | 12.2 | 0.00 | 0.00 | 0.00 | 44 | 1004.8 |
| 20260505015546 | 63 | 119 | 7.8 | 13.9 | 0.00 | 0.00 | 0.00 | 44 | 1004.6 |
| 20260505015308 | 63 | 117 | 7.8 | 13.9 | 0.00 | 0.00 | 0.00 | 44 | 1004.9 |
| 20260505014807 | 63 | 123 | 7.8 | 13.9 | 0.00 | 0.00 | 0.00 | 46 | 1004.9 |
| 20260505014300 | 63 | 118 | 7.0 | 13.9 | 0.00 | 0.00 | 0.00 | 49 | 1005.1 |
| 20260505013522 | 64 | 120 | 7.0 | 13.9 | 0.00 | 0.00 | 0.00 | 45 | 1005.0 |
| 20260505013012 | 63 | 105 | 7.8 | 12.2 | 0.00 | 0.00 | 0.00 | 49 | 1005.1 |
| 20260505012738 | 63 | 90 | 8.7 | 15.6 | 0.00 | 0.00 | 0.00 | 49 | 1005.0 |
| 20260505012005 | 63 | 109 | 9.6 | 18.2 | 0.00 | 0.00 | 0.00 | 47 | 1005.0 |
| 20260505011224 | 65 | 122 | 9.6 | 19.1 | 0.00 | 0.00 | 0.00 | 42 | 1005.4 |
| 20260505010446 | 66 | 123 | 7.8 | 14.8 | 0.00 | 0.00 | 0.00 | 35 | 1005.7 |
| 20260505005937 | 67 | 111 | 7.0 | 11.3 | 0.00 | 0.00 | 0.00 | 32 | 1005.8 |
| 20260505005435 | 67 | 160 | 6.1 | 11.3 | 0.00 | 0.00 | 0.00 | 33 | 1005.8 |
| 20260505004930 | 67 | 118 | 4.3 | 11.3 | 0.00 | 0.00 | 0.00 | 33 | 1006.0 |
| 20260505004424 | 67 | 123 | 4.3 | 7.0 | 0.00 | 0.00 | 0.00 | 30 | 1006.1 |
| 20260505003912 | 68 | 128 | 5.2 | 7.0 | 0.00 | 0.00 | 0.00 | 30 | 1006.3 |
| 20260505003407 | 68 | 184 | 6.1 | 10.4 | 0.00 | 0.00 | 0.00 | 30 | 1006.1 |
| 20260505002906 | 68 | 157 | 6.1 | 11.3 | 0.00 | 0.00 | 0.00 | 30 | 1006.1 |
| 20260505002356 | 68 | 114 | 6.1 | 11.3 | 0.00 | 0.00 | 0.00 | 30 | 1006.3 |
| 20260505001853 | 68 | 100 | 6.1 | 11.3 | 0.00 | 0.00 | 0.00 | 30 | 1006.1 |
| 20260505001347 | 69 | 142 | 4.3 | 10.4 | 0.00 | 0.00 | 0.00 | 30 | 1006.4 |
| 20260505001112 | 69 | 112 | 2.6 | 7.0 | 0.00 | 0.00 | 0.00 | 30 | 1006.6 |
| 20260505000332 | 69 | 37 | 2.6 | 5.2 | 0.00 | 0.00 | 0.00 | 30 | 1006.5 |
| 20260504235822 | 69 | 0 | 2.6 | 6.1 | 0.00 | 0.00 | 0.00 | 30 | 1006.5 |
| 20260504235323 | 69 | 17 | 1.7 | 6.1 | 0.00 | 0.00 | 0.00 | 30 | 1006.4 |
| 20260504234824 | 69 | 344 | 0.9 | 3.5 | 0.00 | 0.00 | 0.00 | 27 | 1006.6 |
| 20260504234323 | 69 | 153 | 1.7 | 4.3 | 0.00 | 0.00 | 0.00 | 28 | 1006.4 |
| 20260504233802 | 68 | 265 | 2.6 | 5.2 | 0.00 | 0.00 | 0.00 | 29 | 1006.1 |
| 20260504233251 | 67 | 242 | 3.5 | 6.1 | 0.00 | 0.00 | 0.00 | 30 | 1005.9 |
| 20260504232752 | 67 | 252 | 4.3 | 9.6 | 0.00 | 0.00 | 0.00 | 31 | 1006.0 |
| 20260504232244 | 67 | 304 | 5.2 | 10.4 | 0.00 | 0.00 | 0.00 | 32 | 1005.8 |
| 20260504231739 | 67 | 277 | 5.2 | 13.0 | 0.00 | 0.00 | 0.00 | 32 | 1005.8 |
| 20260504231232 | 67 | 243 | 6.1 | 13.0 | 0.00 | 0.00 | 0.00 | 32 | 1005.7 |
| 20260504230726 | 67 | 248 | 7.0 | 11.3 | 0.00 | 0.00 | 0.00 | 32 | 1005.7 |
| 20260504230220 | 66 | 275 | 6.1 | 10.4 | 0.00 | 0.00 | 0.00 | 32 | 1005.7 |
| 20260504225710 | 66 | 229 | 7.0 | 16.5 | 0.00 | 0.00 | 0.00 | 33 | 1005.6 |
| 20260504225209 | 67 | 221 | 7.8 | 16.5 | 0.00 | 0.00 | 0.00 | 32 | 1005.8 |
| 20260504224702 | 67 | 276 | 7.8 | 13.9 | 0.00 | 0.00 | 0.00 | 32 | 1005.9 |
| 20260504224158 | 68 | 238 | 7.8 | 14.8 | 0.00 | 0.00 | 0.00 | 33 | 1006.1 |
| 20260504223648 | 67 | 277 | 8.7 | 14.8 | 0.00 | 0.00 | 0.00 | 33 | 1006.0 |
| 20260504223142 | 68 | 265 | 7.8 | 14.8 | 0.00 | 0.00 | 0.00 | 33 | 1006.1 |
| 20260504222633 | 68 | 259 | 8.7 | 16.5 | 0.00 | 0.00 | 0.00 | 33 | 1006.5 |
| 20260504222125 | 69 | 270 | 7.8 | 16.5 | 0.00 | 0.00 | 0.00 | 33 | 1006.6 |
| 20260504221620 | 70 | 182 | 7.0 | 12.2 | 0.00 | 0.00 | 0.00 | 33 | 1006.7 |
| 20260504221113 | 70 | 191 | 6.1 | 12.2 | 0.00 | 0.00 | 0.00 | 32 | 1006.7 |
| 20260504220607 | 69 | 295 | 5.2 | 12.2 | 0.00 | 0.00 | 0.00 | 33 | 1006.5 |
| 20260504220108 | 69 | 226 | 5.2 | 10.4 | 0.00 | 0.00 | 0.00 | 33 | 1006.4 |
| 20260504215605 | 69 | 279 | 6.1 | 10.4 | 0.00 | 0.00 | 0.00 | 32 | 1006.6 |
| 20260504215106 | 69 | 263 | 5.2 | 9.6 | 0.00 | 0.00 | 0.00 | 31 | 1006.7 |
| 20260504214604 | 69 | 294 | 6.1 | 12.2 | 0.00 | 0.00 | 0.00 | 31 | 1006.7 |
| 20260504214102 | 69 | 267 | 6.1 | 12.2 | 0.00 | 0.00 | 0.00 | 32 | 1006.5 |
| 20260504213603 | 68 | 260 | 6.1 | 12.2 | 0.00 | 0.00 | 0.00 | 34 | 1006.4 |
| 20260504213105 | 67 | 271 | 5.2 | 13.0 | 0.00 | 0.00 | 0.00 | 33 | 1006.0 |
| 20260504212601 | 67 | 263 | 6.1 | 13.0 | 0.00 | 0.00 | 0.00 | 33 | 1006.1 |
| 20260504212100 | 67 | 258 | 7.8 | 13.9 | 0.00 | 0.00 | 0.00 | 34 | 1006.1 |
| 20260504211602 | 66 | 214 | 8.7 | 13.9 | 0.00 | 0.00 | 0.00 | 35 | 1006.1 |
| 20260504211100 | 66 | 267 | 8.7 | 15.6 | 0.00 | 0.00 | 0.00 | 37 | 1006.3 |
| 20260504210559 | 66 | 274 | 8.7 | 16.5 | 0.00 | 0.00 | 0.00 | 37 | 1006.4 |
| 20260504210100 | 67 | 274 | 8.7 | 16.5 | 0.00 | 0.00 | 0.00 | 36 | 1006.5 |
| 20260504205558 | 67 | 263 | 9.6 | 18.2 | 0.00 | 0.00 | 0.00 | 35 | 1006.6 |
| 20260504205057 | 67 | 266 | 7.8 | 19.1 | 0.00 | 0.00 | 0.00 | 35 | 1006.7 |
| 20260504204558 | 68 | 275 | 6.1 | 19.1 | 0.00 | 0.00 | 0.00 | 32 | 1006.8 |
| 20260504204059 | 68 | 196 | 7.0 | 12.2 | 0.00 | 0.00 | 0.00 | 36 | 1006.7 |
| 20260504203549 | 67 | 128 | 7.0 | 12.2 | 0.00 | 0.00 | 0.00 | 35 | 1006.8 |
| 20260504203042 | 68 | 130 | 6.1 | 12.2 | 0.00 | 0.00 | 0.00 | 36 | 1006.8 |
| 20260504202536 | 68 | 107 | 7.0 | 12.2 | 0.00 | 0.00 | 0.00 | 35 | 1006.9 |
| 20260504202029 | 68 | 137 | 7.8 | 13.0 | 0.00 | 0.00 | 0.00 | 34 | 1006.9 |
| 20260504201754 | 68 | 91 | 7.8 | 12.2 | 0.00 | 0.00 | 0.00 | 32 | 1006.8 |
| 20260504201016 | 68 | 81 | 7.8 | 15.6 | 0.00 | 0.00 | 0.00 | 33 | 1007.1 |
| 20260504200516 | 68 | 114 | 8.7 | 15.6 | 0.00 | 0.00 | 0.00 | 33 | 1007.2 |
| 20260504200014 | 69 | 119 | 9.6 | 17.4 | 0.00 | 0.00 | 0.00 | 32 | 1007.3 |
| 20260504195744 | 69 | 91 | 9.6 | 18.2 | 0.00 | 0.00 | 0.00 | 32 | 1007.4 |
| 20260504195013 | 70 | 124 | 9.6 | 18.2 | 0.00 | 0.00 | 0.00 | 31 | 1007.5 |
| 20260504194512 | 69 | 84 | 9.6 | 14.8 | 0.00 | 0.00 | 0.00 | 32 | 1007.6 |
| 20260504194011 | 70 | 121 | 9.6 | 18.2 | 0.00 | 0.00 | 0.00 | 32 | 1007.7 |
| 20260504193511 | 69 | 180 | 11.3 | 18.2 | 0.00 | 0.00 | 0.00 | 32 | 1007.5 |
| 20260504193012 | 69 | 97 | 11.3 | 18.2 | 0.00 | 0.00 | 0.00 | 33 | 1007.6 |
| 20260504192513 | 69 | 31 | 11.3 | 18.2 | 0.00 | 0.00 | 0.00 | 33 | 1007.5 |
| 20260504192009 | 69 | 85 | 10.4 | 17.4 | 0.00 | 0.00 | 0.00 | 34 | 1007.5 |
| 20260504191509 | 69 | 100 | 10.4 | 17.4 | 0.00 | 0.00 | 0.00 | 33 | 1007.7 |
| 20260504191006 | 70 | 107 | 9.6 | 17.4 | 0.00 | 0.00 | 0.00 | 31 | 1007.7 |
| 20260504190508 | 69 | 92 | 9.6 | 16.5 | 0.00 | 0.00 | 0.00 | 33 | 1007.7 |
| 20260504185455 | 69 | 113 | 9.6 | 16.5 | 0.00 | 0.00 | 0.00 | 34 | 1008.2 |
| 20260504184955 | 69 | 100 | 9.6 | 16.5 | 0.00 | 0.00 | 0.00 | 34 | 1007.9 |
| 20260504184455 | 69 | 72 | 9.6 | 17.4 | 0.00 | 0.00 | 0.00 | 33 | 1008.2 |
| 20260504183955 | 69 | 128 | 8.7 | 17.4 | 0.00 | 0.00 | 0.00 | 33 | 1008.1 |
| 20260504183453 | 69 | 109 | 8.7 | 13.9 | 0.00 | 0.00 | 0.00 | 34 | 1008.1 |
| 20260504182956 | 69 | 96 | 8.7 | 13.9 | 0.00 | 0.00 | 0.00 | 33 | 1008.2 |
| 20260504182452 | 69 | 86 | 8.7 | 13.9 | 0.00 | 0.00 | 0.00 | 33 | 1008.1 |
| 20260504181953 | 68 | 101 | 7.8 | 13.9 | 0.00 | 0.00 | 0.00 | 33 | 1008.1 |
| 20260504181454 | 69 | 82 | 7.0 | 13.0 | 0.00 | 0.00 | 0.00 | 34 | 1008.2 |
| 20260504181218 | 68 | 103 | 7.0 | 13.0 | 0.00 | 0.00 | 0.00 | 35 | 1008.0 |
| 20260504180439 | 67 | 89 | 7.0 | 13.0 | 0.00 | 0.00 | 0.00 | 35 | 1008.1 |
| 20260504180210 | 67 | 83 | 7.8 | 11.3 | 0.00 | 0.00 | 0.00 | 35 | 1008.0 |
| 20260504175439 | 67 | 74 | 7.8 | 15.6 | 0.00 | 0.00 | 0.00 | 35 | 1007.9 |
| 20260504175210 | 66 | 42 | 7.8 | 15.6 | 0.00 | 0.00 | 0.00 | 35 | 1008.0 |
| 20260504174437 | 67 | 98 | 7.8 | 13.9 | 0.00 | 0.00 | 0.00 | 35 | 1008.3 |
| 20260504173938 | 67 | 76 | 7.8 | 13.0 | 0.00 | 0.00 | 0.00 | 37 | 1008.1 |
| 20260504173436 | 66 | 113 | 8.7 | 13.9 | 0.00 | 0.00 | 0.00 | 37 | 1008.0 |
| 20260504172938 | 66 | 118 | 8.7 | 13.9 | 0.00 | 0.00 | 0.00 | 35 | 1008.1 |
| 20260504172440 | 66 | 83 | 7.8 | 13.9 | 0.00 | 0.00 | 0.00 | 36 | 1008.3 |
| 20260504172207 | 65 | 97 | 8.7 | 13.9 | 0.00 | 0.00 | 0.00 | 37 | 1008.2 |
| 20260504171421 | 65 | 134 | 7.8 | 13.9 | 0.00 | 0.00 | 0.00 | 37 | 1008.2 |
| 20260504170916 | 66 | 110 | 7.0 | 13.0 | 0.00 | 0.00 | 0.00 | 35 | 1008.3 |
| 20260504170418 | 66 | 76 | 7.0 | 12.2 | 0.00 | 0.00 | 0.00 | 40 | 1008.2 |
| 20260504160407 | 63 | 96 | 3.5 | 6.1 | 0.00 | 0.00 | 0.00 | 45 | 1007.7 |
| 20260504160136 | 62 | 56 | 3.5 | 6.1 | 0.00 | 0.00 | 0.00 | 45 | 1007.5 |
| 20260504151020 | 60 | 84 | 3.5 | 6.1 | 0.00 | 0.00 | 0.00 | 50 | 1007.5 |
| 20260504150235 | 60 | 99 | 4.3 | 7.0 | 0.00 | 0.00 | 0.00 | 49 | 1007.5 |
| 20260504141036 | 57 | 202 | 2.6 | 4.3 | 0.00 | 0.00 | 0.00 | 57 | 1006.7 |
| 20260504140523 | 57 | 175 | 2.6 | 5.2 | 0.00 | 0.00 | 0.00 | 56 | 1006.6 |
| 20260504130344 | 56 | 46 | 1.7 | 3.5 | 0.00 | 0.00 | 0.00 | 57 | 1006.3 |
| 20260504130109 | 56 | 107 | 1.7 | 4.3 | 0.00 | 0.00 | 0.00 | 57 | 1006.5 |
| 20260504110118 | 56 | 279 | 0.0 | 1.7 | 0.00 | 0.00 | 0.00 | 50 | 1006.4 |
| 20260504100506 | 57 | 326 | 2.6 | 4.3 | 0.00 | 0.00 | 0.00 | 44 | 1007.2 |
| 20260504081750 | 56 | 22 | 3.5 | 6.1 | 0.00 | 0.00 | 0.00 | 35 | 1006.3 |
| 20260504081245 | 55 | 40 | 2.6 | 6.1 | 0.00 | 0.00 | 0.00 | 36 | 1005.9 |
| 20260504080732 | 55 | 46 | 2.6 | 7.8 | 0.00 | 0.00 | 0.00 | 36 | 1005.9 |
| 20260504080234 | 55 | 274 | 4.3 | 7.8 | 0.00 | 0.00 | 0.00 | 36 | 1005.8 |
| 20260504070206 | 59 | 344 | 0.0 | 3.5 | 0.00 | 0.00 | 0.00 | 30 | 1006.5 |
| 20260504060123 | 59 | 267 | 3.5 | 4.3 | 0.00 | 0.00 | 0.00 | 31 | 1006.7 |